EW7239 Weather Reports


Display with metric or nautical units.
time (UTC)temp
F
wind
direction
speed
MPH
gust
MPH
rain 1hr
in
rain 24hr
in
rain mn
in
humidity
%
barometer
mb
20260510194413 86 221 5.0 11.0 0.00 0.00 0.00 40 1013.2
20260510193913 85 259 5.0 10.0 0.00 0.00 0.00 43 1013.2
20260510193414 85 242 5.0 10.0 0.00 0.00 0.00 42 1013.1
20260510192915 85 213 4.0 9.0 0.00 0.00 0.00 42 1013.2
20260510192414 84 259 4.0 10.0 0.00 0.00 0.00 42 1013.2
20260510191912 83 255 5.0 10.0 0.00 0.00 0.00 44 1013.3
20260510191409 82 225 5.0 10.0 0.00 0.00 0.00 44 1013.3
20260510190909 82 229 5.0 9.0 0.00 0.00 0.00 47 1013.3
20260510190640 81 227 5.0 9.0 0.00 0.00 0.00 48 1013.4
20260510185909 81 260 4.0 9.0 0.00 0.00 0.00 48 1013.4
20260510185407 80 197 4.0 8.0 0.00 0.00 0.00 50 1013.4
20260510184908 80 265 4.0 8.0 0.00 0.00 0.00 51 1013.4
20260510184405 79 232 3.0 7.0 0.00 0.00 0.00 55 1013.6
20260510183906 79 238 3.0 7.0 0.00 0.00 0.00 54 1013.6
20260510183406 78 247 3.0 8.0 0.00 0.00 0.00 55 1013.6
20260510182904 78 252 3.0 8.0 0.00 0.00 0.00 58 1013.6
20260510182633 77 226 3.0 6.0 0.00 0.00 0.00 58 1013.6
20260510181903 77 222 3.0 8.0 0.00 0.00 0.00 57 1013.7
20260510181402 77 222 2.0 8.0 0.00 0.00 0.00 60 1013.7
20260510180900 76 220 2.0 6.0 0.00 0.00 0.00 60 1013.7
20260510180400 76 219 2.0 7.0 0.00 0.00 0.00 61 1013.8
20260510175900 75 212 3.0 7.0 0.00 0.00 0.00 63 1013.7
20260510175413 75 210 2.0 5.0 0.00 0.00 0.00 64 1013.8
20260510174900 74 209 2.0 7.0 0.00 0.00 0.00 65 1013.8
20260510174357 74 209 2.0 7.0 0.00 0.00 0.00 67 1013.9
20260510173857 73 228 2.0 6.0 0.00 0.00 0.00 68 1013.8
20260510173358 72 228 2.0 5.0 0.00 0.00 0.00 70 1013.9
20260510172858 71 228 2.0 5.0 0.00 0.00 0.00 73 1013.8
20260510172357 71 227 2.0 6.0 0.00 0.00 0.00 74 1013.8
20260510172129 70 227 1.0 6.0 0.00 0.00 0.00 77 1013.8
20260510171628 69 227 0.0 3.0 0.00 0.00 0.00 79 1013.9
20260510170855 69 227 1.0 4.0 0.00 0.00 0.00 81 1013.9
20260510170356 67 227 1.0 4.0 0.00 0.00 0.00 83 1013.8
20260510170120 67 227 1.0 5.0 0.00 0.00 0.00 84 1013.8
20260510165622 66 227 1.0 5.0 0.00 0.00 0.00 84 1013.8
20260510164850 66 227 2.0 4.0 0.00 0.00 0.00 82 1013.8
20260510164349 65 227 2.0 5.0 0.00 0.00 0.00 81 1013.8
20260510163849 64 227 2.0 5.0 0.00 0.00 0.00 78 1013.8
20260510163348 64 227 1.0 4.0 0.00 0.00 0.00 76 1013.8
20260510162848 64 227 0.0 2.0 0.00 0.00 0.00 74 1013.8
20260510162349 63 227 0.0 4.0 0.00 0.00 0.00 74 1013.8
20260510161845 62 227 1.0 4.0 0.00 0.00 0.00 74 1013.8
20260510161618 62 227 1.0 4.0 0.00 0.00 0.00 74 1013.8
20260510160339 61 227 1.0 4.0 0.00 0.00 0.00 75 1013.8
20260510160111 61 227 1.0 4.0 0.00 0.00 0.00 75 1013.7
20260510155612 61 227 1.0 2.0 0.00 0.00 0.00 75 1013.8
20260510154837 61 227 1.0 3.0 0.00 0.00 0.00 75 1013.8
20260510154337 60 227 0.0 3.0 0.00 0.00 0.00 75 1013.8
20260510153836 60 227 1.0 4.0 0.00 0.00 0.00 76 1013.9
20260510153335 60 227 1.0 4.0 0.00 0.00 0.00 76 1013.8
20260510153108 60 227 1.0 4.0 0.00 0.00 0.00 76 1013.9
20260510152337 60 227 2.0 4.0 0.00 0.00 0.00 77 1013.9
20260510151830 60 227 1.0 4.0 0.00 0.00 0.00 76 1013.9
20260510151330 60 227 0.0 4.0 0.00 0.00 0.00 76 1013.9
20260510151113 60 227 0.0 4.0 0.00 0.00 0.00 77 1013.9
20260510150329 60 227 0.0 3.0 0.00 0.00 0.00 77 1013.9
20260510145825 60 227 1.0 3.0 0.00 0.00 0.00 77 1013.9
20260510145557 60 227 1.0 3.0 0.00 0.00 0.00 77 1013.8
20260510144826 60 227 1.0 3.0 0.00 0.00 0.00 77 1013.9
20260510144326 59 227 1.0 3.0 0.00 0.00 0.00 77 1013.9
20260510143820 59 227 0.0 2.0 0.00 0.00 0.00 77 1013.8
20260510143317 59 227 1.0 3.0 0.00 0.00 0.00 78 1013.8
20260510142819 59 231 1.0 3.0 0.00 0.00 0.00 78 1013.8
20260510142549 59 231 0.0 2.0 0.00 0.00 0.00 78 1013.7
20260510141816 59 231 0.0 2.0 0.00 0.00 0.00 78 1013.7
20260510141314 59 231 0.0 2.0 0.00 0.00 0.00 78 1013.7
20260510140809 59 231 0.0 0.0 0.00 0.00 0.00 79 1013.7
20260510140310 59 231 0.0 0.0 0.00 0.00 0.00 79 1013.6
20260510135810 59 231 1.0 2.0 0.00 0.00 0.00 79 1013.5
20260510135306 59 231 1.0 2.0 0.00 0.00 0.00 80 1013.5
20260510135034 59 231 0.0 2.0 0.00 0.00 0.00 80 1013.5
20260510134302 59 229 1.0 5.0 0.00 0.00 0.00 80 1013.4
20260510134035 59 229 2.0 5.0 0.00 0.00 0.00 80 1013.4
20260510133303 59 229 2.0 3.0 0.00 0.00 0.00 80 1013.3
20260510132802 59 229 1.0 3.0 0.00 0.00 0.00 80 1013.3
20260510132305 58 229 2.0 4.0 0.00 0.00 0.00 81 1013.2
20260510131804 58 229 2.0 5.0 0.00 0.00 0.00 81 1013.2
20260510131301 58 229 2.0 5.0 0.00 0.00 0.00 81 1013.2
20260510130759 58 229 1.0 4.0 0.00 0.00 0.00 81 1013.2
20260510130259 58 229 1.0 4.0 0.00 0.00 0.00 81 1013.1
20260510125756 58 229 1.0 4.0 0.00 0.00 0.00 82 1013.0
20260510125255 58 229 2.0 4.0 0.00 0.00 0.00 82 1013.0
20260510125029 58 229 3.0 5.0 0.00 0.00 0.00 83 1013.0
20260510124252 58 229 3.0 5.0 0.00 0.00 0.00 83 1013.0
20260510123751 58 229 3.0 6.0 0.00 0.00 0.00 83 1013.0
20260510123252 58 229 2.0 6.0 0.00 0.00 0.00 83 1013.0
20260510122746 58 229 1.0 4.0 0.00 0.00 0.00 84 1013.0
20260510122246 58 229 0.0 0.0 0.00 0.00 0.00 84 1013.0
20260510121747 58 229 1.0 3.0 0.00 0.00 0.00 84 1013.0
20260510121511 58 229 1.0 4.0 0.00 0.00 0.00 84 1013.0
20260510120737 58 229 0.0 4.0 0.00 0.00 0.00 84 1012.9
20260510120237 58 229 0.0 0.0 0.00 0.00 0.00 84 1012.9
20260510115234 58 229 0.0 0.0 0.00 0.00 0.00 84 1012.9
20260510114733 58 229 0.0 0.0 0.00 0.00 0.00 84 1012.8
20260510114225 58 229 0.0 0.0 0.00 0.00 0.00 85 1012.8
20260510113723 58 229 0.0 0.0 0.00 0.00 0.00 84 1012.8
20260510113224 58 229 0.0 0.0 0.00 0.00 0.00 85 1012.9
20260510112721 58 229 0.0 0.0 0.00 0.00 0.00 85 1012.9
20260510112220 58 229 0.0 0.0 0.00 0.00 0.00 85 1012.9
20260510111721 58 229 0.0 0.0 0.00 0.00 0.00 85 1012.9
20260510111217 58 229 1.0 3.0 0.00 0.00 0.00 85 1012.9
20260510110717 58 229 1.0 3.0 0.00 0.00 0.00 85 1012.9
20260510110447 58 229 1.0 2.0 0.00 0.00 0.00 85 1012.8
20260510105713 58 229 1.0 3.0 0.00 0.00 0.00 85 1012.9
20260510105213 58 229 1.0 3.0 0.00 0.00 0.00 85 1012.9
20260510104714 58 229 0.0 3.0 0.00 0.00 0.00 85 1013.0
20260510104445 58 229 0.0 0.0 0.00 0.00 0.00 85 1012.9
20260510103713 58 229 0.0 0.0 0.00 0.00 0.00 85 1012.9
20260510103444 59 229 0.0 0.0 0.00 0.00 0.00 85 1012.9
20260510102709 59 229 0.0 0.0 0.00 0.00 0.00 85 1012.9
20260510102207 59 229 0.0 0.0 0.00 0.00 0.00 85 1012.9
20260510101709 59 229 0.0 0.0 0.00 0.00 0.00 85 1012.9
20260510101205 59 229 0.0 0.0 0.00 0.00 0.00 85 1012.9
20260510100705 59 229 0.0 0.0 0.00 0.00 0.00 85 1012.9
20260510100204 59 229 0.0 0.0 0.00 0.00 0.00 85 1012.9
20260510095701 59 229 0.0 0.0 0.00 0.00 0.00 85 1013.0
20260510095200 59 229 0.0 0.0 0.00 0.00 0.00 85 1013.0
20260510094157 59 229 0.0 0.0 0.00 0.00 0.00 85 1012.9
20260510093657 59 229 0.0 0.0 0.00 0.00 0.00 85 1013.0
20260510093153 59 229 0.0 0.0 0.00 0.00 0.00 85 1012.9
20260510092654 59 229 0.0 0.0 0.00 0.00 0.00 85 1013.0
20260510092154 59 229 0.0 0.0 0.00 0.00 0.00 85 1013.0
20260510091655 59 229 0.0 0.0 0.00 0.00 0.00 85 1013.1
20260510091153 59 229 0.0 0.0 0.00 0.00 0.00 85 1013.1
20260510090652 60 229 0.0 0.0 0.00 0.00 0.00 85 1013.1
20260510090150 59 229 0.0 0.0 0.00 0.00 0.00 85 1013.0
20260510085920 60 229 0.0 0.0 0.00 0.00 0.00 85 1013.1
20260510085150 60 229 0.0 0.0 0.00 0.00 0.00 85 1013.1
20260510084650 60 229 0.0 0.0 0.00 0.00 0.00 85 1013.0
20260510084150 60 229 0.0 0.0 0.00 0.00 0.00 85 1013.1
20260510083647 60 229 0.0 0.0 0.00 0.00 0.00 85 1013.2
20260510083145 60 229 0.0 0.0 0.00 0.00 0.00 85 1013.1
20260510082646 60 229 0.0 0.0 0.00 0.00 0.00 85 1013.2
20260510082144 60 229 0.0 0.0 0.00 0.00 0.00 85 1013.2
20260510081642 60 229 0.0 0.0 0.00 0.00 0.00 84 1013.2
20260510081413 60 229 1.0 2.0 0.00 0.00 0.00 84 1013.3
20260510080639 60 229 1.0 3.0 0.00 0.00 0.00 84 1013.4
20260510080141 61 229 1.0 3.0 0.00 0.00 0.00 84 1013.4
20260510075640 61 229 0.0 2.0 0.00 0.00 0.00 84 1013.4
20260510075135 61 229 0.0 2.0 0.00 0.00 0.00 84 1013.4
20260510074636 61 229 0.0 1.0 0.00 0.00 0.00 84 1013.4
20260510074131 61 229 0.0 2.0 0.00 0.00 0.00 84 1013.4
20260510073631 61 229 0.0 2.0 0.00 0.00 0.00 84 1013.4
20260510073132 61 229 0.0 2.0 0.00 0.00 0.00 83 1013.5
20260510072902 61 229 1.0 3.0 0.00 0.00 0.00 83 1013.4
20260510072131 61 229 1.0 3.0 0.00 0.00 0.00 83 1013.5
20260510071904 61 229 1.0 2.0 0.00 0.00 0.00 83 1013.5
20260510071130 62 229 1.0 2.0 0.00 0.00 0.00 83 1013.6
20260510070632 62 229 1.0 3.0 0.00 0.00 0.00 83 1013.5
20260510070401 62 229 1.0 4.0 0.00 0.00 0.00 82 1013.5
20260510065632 62 229 2.0 4.0 0.00 0.00 0.00 82 1013.6
20260510065356 62 229 2.0 4.0 0.00 0.00 0.00 82 1013.6
20260510064857 62 229 2.0 4.0 0.00 0.00 0.00 82 1013.6
20260510064121 62 229 2.0 5.0 0.00 0.00 0.00 82 1013.6
20260510063351 63 229 2.0 5.0 0.00 0.00 0.00 82 1013.6
20260510062847 63 229 3.0 5.0 0.00 0.00 0.00 81 1013.6
20260510062116 63 229 3.0 5.0 0.00 0.00 0.00 81 1013.6
20260510061615 63 229 3.0 6.0 0.00 0.00 0.00 81 1013.6
20260510061115 63 229 2.0 6.0 0.00 0.00 0.00 81 1013.7
20260510060609 63 229 2.0 5.0 0.00 0.00 0.00 80 1013.6
20260510060112 63 229 2.0 5.0 0.00 0.00 0.00 80 1013.6
20260510055611 64 229 3.0 6.0 0.00 0.00 0.00 80 1013.5
20260510055109 64 229 3.0 7.0 0.00 0.00 0.00 80 1013.5
20260510054604 64 229 3.0 7.0 0.00 0.00 0.00 80 1013.5
20260510054102 64 229 2.0 5.0 0.00 0.00 0.00 79 1013.5
20260510053558 64 229 2.0 4.0 0.00 0.00 0.00 79 1013.5
20260510053057 64 229 2.0 5.0 0.00 0.00 0.00 79 1013.6
20260510052557 64 229 3.0 6.0 0.00 0.00 0.00 79 1013.6
20260510052324 64 229 3.0 6.0 0.00 0.00 0.00 78 1013.5
20260510051548 65 229 3.0 6.0 0.00 0.00 0.00 78 1013.4
20260510051049 65 229 3.0 5.0 0.00 0.00 0.00 77 1013.5
20260510050550 65 229 4.0 6.0 0.00 0.00 0.00 77 1013.4
20260510050059 65 229 4.0 7.0 0.00 0.00 0.00 76 1013.3
20260510045546 66 229 4.0 7.0 0.00 0.00 0.00 76 1013.3
20260510045315 66 230 4.0 7.0 0.00 0.00 0.00 75 1013.3
20260510044545 66 229 4.0 7.0 0.00 0.00 0.00 75 1013.3
20260510044042 66 230 3.0 7.0 0.00 0.00 0.00 75 1013.2
20260510043815 66 231 3.0 7.0 0.00 0.00 0.00 75 1013.1
20260510043036 67 231 4.0 7.0 0.00 0.00 0.00 74 1013.1
20260510042036 67 223 4.0 9.0 0.00 0.00 0.00 74 1012.9
20260510041536 67 222 5.0 9.0 0.00 0.00 0.00 73 1012.9
20260510041036 67 222 5.0 9.0 0.00 0.00 0.00 73 1012.7
20260510040533 67 223 5.0 8.0 0.00 0.00 0.00 72 1012.7
20260510040034 67 227 6.0 9.0 0.00 0.00 0.00 72 1012.6
20260510035534 68 232 6.0 9.0 0.00 0.00 0.00 71 1012.5
20260510035306 68 221 5.0 8.0 0.00 0.00 0.00 70 1012.6
20260510034534 68 219 4.0 8.0 0.00 0.00 0.00 70 1012.5
20260510034035 69 222 4.0 8.0 0.00 0.00 0.00 69 1012.3
20260510033805 69 222 4.0 8.0 0.00 0.00 0.00 68 1012.2
20260510033034 69 222 4.0 7.0 0.00 0.00 0.00 67 1012.2
20260510032535 70 223 5.0 7.0 0.00 0.00 0.00 67 1012.1
20260510032033 70 223 6.0 10.0 0.00 0.00 0.00 67 1012.1
20260510031532 70 222 6.0 10.0 0.00 0.00 0.00 66 1012.0
20260510031032 71 223 6.0 10.0 0.00 0.00 0.00 65 1011.9
20260510030532 71 225 5.0 10.0 0.00 0.00 0.00 64 1011.8
20260510030030 71 221 5.0 10.0 0.00 0.00 0.00 63 1011.8
20260510025802 72 219 6.0 11.0 0.00 0.00 0.00 63 1011.7
20260510025023 72 219 7.0 12.0 0.00 0.00 0.00 62 1011.7
20260510024525 73 217 6.0 12.0 0.00 0.00 0.00 61 1011.6
20260510024024 73 227 5.0 9.0 0.00 0.00 0.00 60 1011.5
20260510023025 74 222 6.0 11.0 0.00 0.00 0.00 58 1011.4
20260510022523 75 225 6.0 13.0 0.00 0.00 0.00 57 1011.4
20260510022023 75 217 6.0 13.0 0.00 0.00 0.00 56 1011.3
20260510021520 76 221 7.0 14.0 0.00 0.00 0.00 54 1011.3
20260510021018 76 228 8.0 14.0 0.00 0.00 0.00 53 1011.2
20260510020801 77 226 8.0 12.0 0.00 0.00 0.00 52 1011.2
20260510015516 77 221 8.0 12.0 0.00 0.00 0.00 50 1011.2
20260510015016 78 220 8.0 12.0 0.00 0.00 0.00 50 1011.1
20260510014517 78 219 8.0 12.0 0.00 0.00 0.00 49 1011.0
20260510014012 78 219 8.0 13.0 0.00 0.00 0.00 48 1011.0
20260510013512 79 217 8.0 14.0 0.00 0.00 0.00 46 1011.0
20260510013012 80 215 7.0 14.0 0.00 0.00 0.00 46 1011.0
20260510012513 80 223 7.0 11.0 0.00 0.00 0.00 46 1010.9
20260510012240 81 230 6.0 11.0 0.00 0.00 0.00 45 1010.8
20260510011509 81 226 7.0 17.0 0.00 0.00 0.00 43 1010.8
20260510011008 81 218 8.0 17.0 0.00 0.00 0.00 43 1010.8
20260510010737 82 227 7.0 16.0 0.00 0.00 0.00 42 1010.8
20260510010005 82 236 8.0 16.0 0.00 0.00 0.00 42 1010.8
20260510005504 82 227 8.0 14.0 0.00 0.00 0.00 42 1010.7
20260510005235 82 220 9.0 15.0 0.00 0.00 0.00 41 1010.7
20260510004502 82 232 10.0 17.0 0.00 0.00 0.00 42 1010.7
20260510004232 82 221 10.0 17.0 0.00 0.00 0.00 41 1010.6
20260510003500 83 214 8.0 15.0 0.00 0.00 0.00 41 1010.6
20260510003231 83 232 9.0 16.0 0.00 0.00 0.00 41 1010.6
20260510002730 83 222 9.0 16.0 0.00 0.00 0.00 42 1010.6
20260510001958 84 221 8.0 16.0 0.00 0.00 0.00 41 1010.6
20260510001458 84 227 9.0 16.0 0.00 0.00 0.00 43 1010.6
20260510001011 84 240 10.0 16.0 0.00 0.00 0.00 41 1010.5
20260510000458 84 209 9.0 16.0 0.00 0.00 0.00 41 1010.6
20260509235957 85 257 9.0 16.0 0.00 0.00 0.00 41 1010.6
20260509235454 85 216 8.0 16.0 0.00 0.00 0.00 40 1010.7
20260509234955 85 213 8.0 15.0 0.00 0.00 0.00 41 1010.6
20260509234450 86 227 8.0 15.0 0.00 0.00 0.00 41 1010.6
20260509233950 86 225 7.0 15.0 0.00 0.00 0.00 39 1010.7
20260509233451 86 226 7.0 14.0 0.00 0.00 0.00 41 1010.6
20260509232944 87 219 7.0 14.0 0.00 0.00 0.00 37 1010.6
20260509232444 87 263 7.0 13.0 0.00 0.00 0.00 37 1010.7
20260509232214 86 216 7.0 14.0 0.00 0.00 0.00 39 1010.7
20260509231443 87 225 7.0 14.0 0.00 0.00 0.00 37 1010.6
20260509230943 87 225 7.0 13.0 0.00 0.00 0.00 37 1010.7
20260509230445 87 253 7.0 14.0 0.00 0.00 0.00 38 1010.6
20260509225944 87 248 7.0 14.0 0.00 0.00 0.00 38 1010.8
20260509225444 87 213 7.0 13.0 0.00 0.00 0.00 38 1010.8
20260509224943 87 255 7.0 15.0 0.00 0.00 0.00 37 1010.8
20260509224439 87 216 7.0 15.0 0.00 0.00 0.00 38 1010.9
20260509223938 87 242 8.0 15.0 0.00 0.00 0.00 39 1010.9
20260509223709 88 236 7.0 15.0 0.00 0.00 0.00 38 1010.9
20260509222938 88 232 6.0 12.0 0.00 0.00 0.00 39 1010.9
20260509222438 88 267 7.0 11.0 0.00 0.00 0.00 39 1011.0
20260509222209 88 267 7.0 12.0 0.00 0.00 0.00 37 1011.0
20260509221437 87 259 6.0 13.0 0.00 0.00 0.00 39 1011.1
20260509220934 87 222 6.0 13.0 0.00 0.00 0.00 39 1011.2
20260509220434 87 215 7.0 12.0 0.00 0.00 0.00 39 1011.2
20260509220201 87 262 8.0 13.0 0.00 0.00 0.00 41 1011.2
20260509215702 86 234 7.0 13.0 0.00 0.00 0.00 40 1011.3
20260509214930 86 222 7.0 13.0 0.00 0.00 0.00 40 1011.4
20260509214426 86 226 7.0 14.0 0.00 0.00 0.00 41 1011.4
20260509213926 86 225 7.0 14.0 0.00 0.00 0.00 41 1011.4
20260509213426 86 225 6.0 12.0 0.00 0.00 0.00 41 1011.4
20260509212924 87 217 7.0 12.0 0.00 0.00 0.00 42 1011.5
20260509212656 86 219 7.0 13.0 0.00 0.00 0.00 40 1011.6
20260509211925 87 232 6.0 13.0 0.00 0.00 0.00 40 1011.7
20260509211425 86 235 6.0 11.0 0.00 0.00 0.00 41 1011.8
20260509210922 87 249 5.0 11.0 0.00 0.00 0.00 39 1011.9
20260509210420 87 221 5.0 11.0 0.00 0.00 0.00 39 1011.9
20260509205921 87 227 5.0 9.0 0.00 0.00 0.00 39 1012.0
20260509205417 87 201 5.0 9.0 0.00 0.00 0.00 40 1012.0
20260509204918 86 225 5.0 9.0 0.00 0.00 0.00 40 1012.1
20260509204419 86 226 6.0 12.0 0.00 0.00 0.00 41 1012.1
20260509203413 86 221 5.0 11.0 0.00 0.00 0.00 42 1012.0
20260509203145 85 242 4.0 11.0 0.00 0.00 0.00 43 1012.1
20260509202410 85 221 5.0 9.0 0.00 0.00 0.00 41 1012.2
20260509201910 85 225 5.0 9.0 0.00 0.00 0.00 42 1012.2
20260509201409 86 232 4.0 10.0 0.00 0.00 0.00 38 1012.3
20260509200909 85 225 4.0 10.0 0.00 0.00 0.00 39 1012.3
20260509200637 85 202 4.0 7.0 0.00 0.00 0.00 39 1012.5
20260509195906 84 252 4.0 8.0 0.00 0.00 0.00 39 1012.5
20260509195404 84 247 4.0 8.0 0.00 0.00 0.00 40 1012.6
20260509194903 83 171 4.0 9.0 0.00 0.00 0.00 40 1012.7